Skip Page Navigation
NASA JPL Caltech
NASA Logo - Jet Propulsion Laboratory + View the NASA Portal
+ Center for Near-Earth Object Studies
JPL Home Earth Solar System Stars & Galaxies Technology
JPL Solar System Dynamics
BODIES ORBITS EPHEMERIDES TOOLS PHYSICAL DATA DISCOVERY FAQ SITE MAP
JPL Small-Body Database Browser
Search: [ help ]  
187537 (2006 UV93)
Classification: Main-belt Asteroid          SPK-ID: 2187537
Ephemeris | Orbit Diagram | Orbital Elements | Mission Design | Physical Parameters | Discovery Circumstances ]

[ show orbit diagram ]
Orbital Elements at Epoch 2459200.5 (2020-Dec-17.0) TDB
Reference: JPL 18 (heliocentric ecliptic J2000)
 Element Value Uncertainty (1-sigma)   Units 
e .0902263877168215 4.2802e-08  
a 2.303359178550665 1.2402e-08 au
q 2.095535400255653 1.0341e-07 au
i 4.610172005800079 4.4772e-06 deg
node 65.96086063532027 4.6976e-05 deg
peri 98.60607694295568 5.3878e-05 deg
M 256.4814436438568 2.6e-05 deg
tp 2459567.661073979883
(2021-Dec-19.16107398)
9.3269e-05 TDB
period 1276.853071424366
3.50
1.0313e-05
2.824e-08
d
yr
n .2819431679781369 2.2772e-09 deg/d
Q 2.511182956845677 1.3521e-08 au
  Orbit Determination Parameters
   # obs. used (total)      448  
   data-arc span      7269 days (19.90 yr)  
   first obs. used      2001-03-20  
   last obs. used      2021-02-12  
   planetary ephem.      DE441  
   SB-pert. ephem.      SB441-N16  
   condition code      0  
   norm. resid. RMS      .60416  
   source      ORB  
   producer      Otto Matic  
   solution date      2021-Apr-13 21:55:49  

Additional Information
 Earth MOID = 1.10818 au 
 Jupiter MOID = 2.46343 au 
 T_jup = 3.580 
[ show covariance matrix ]

Ephemeris | Orbit Diagram | Orbital Elements | Mission Design | Physical Parameters | Discovery Circumstances ]

Physical Parameter Table
Parameter Symbol Value Units Sigma Reference Notes
absolute magnitude H 16.9   n/a MPO436928  

187537 (2006 UV93)          Discovered 2006-Oct-18 by Spacewatch at Kitt Peak
Reference: 20080520/Numbers.arcLast Updated: 2008-05-22

Alternate Designations
 2006 UV93 = 2001 FJ133 
Ephemeris | Orbit Diagram | Orbital Elements | Mission Design | Physical Parameters | Discovery Circumstances ]
ABOUT SSD CREDITS/AWARDS PRIVACY/COPYRIGHT GLOSSARY LINKS
FirstGov 2021-Apr-15 16:23 UT
(server date/time)  
NASA Home Page
Site Manager:   Ryan S. Park
Webmaster  Alan B. Chamberlin